QPF
0.00 0.00 0.00 0.00 0.00 0.00 0.00 0.00 0.01 0.01 0.00 0.00 0.00 0.01 0.01 0.01 0.00 0.00 0.00 0.00 0.00 0.00 0.00 0.00 0.00 0.00 0.00 0.00 0.00 0.00 0.00 0.00 0.00 0.00 0.00 0.04 0.00 0.00 0.00 0.01 0.01 0.00 0.00
0.00 0.00 0.00 0.00 0.00 0.00 0.00 0.01 0.01 0.02 0.00 0.02 0.03 0.09 0.01 0.02 0.01 0.00 0.00 0.00 0.00 0.00 0.00 0.00 0.00 0.00 0.01 0.00 0.01 0.00 0.00 0.00 0.00 0.00 0.00 0.01 0.00 0.00 0.00 0.01 0.00 0.00 0.00
0.00 0.00 0.00 0.00 0.00 0.00 0.00 0.00 0.00 0.02 0.00 0.00 0.01 0.04 0.03 0.02 0.00 0.00 0.00 0.00 0.00 0.00 0.00 0.00 0.03 0.01 0.01 0.01 0.00 0.00 0.00 0.00 0.00 0.01 0.00 0.00 0.00 0.00 0.00 0.03 0.01 0.01 0.00
0.00 0.00 0.00 0.00 0.00 0.00 0.00 0.00 0.00 0.00 0.00 0.00 0.00 0.01 0.02 0.01 0.00 0.00 0.01 0.00 0.00 0.00 0.00 0.02 0.04 0.01 0.00 0.00 0.00 0.00 0.00 0.00 0.00 0.01 0.01 0.01 0.00 0.00 0.00 0.00 0.01 0.00 0.06
0.00 0.00 0.00 0.00 0.00 0.00 0.00 0.00 0.00 0.01 0.03 0.01 0.00 0.00 0.00 0.00 0.00 0.00 0.00 0.00 0.00 0.00 0.00 0.02 0.13 0.01 0.00 0.00 0.00 0.00 0.00 0.00 0.00 0.00 0.03 0.01 0.00 0.00 0.00 0.00 0.00 0.00 0.00
0.00 0.00 0.00 0.00 0.00 0.00 0.00 0.00 0.00 0.00 0.01 0.01 0.00 0.01 0.02 0.02 0.00 0.00 0.00 0.00 0.00 0.01 0.01 0.00 0.04 0.07 0.00 0.00 0.00 0.00 0.00 0.00 0.00 0.00 0.00 0.00 0.00 0.00 0.00 0.00 0.00 0.00 0.00
0.00 0.00 0.00 0.00 0.00 0.00 0.00 0.00 0.00 0.00 0.00 0.01 0.00 0.00 0.00 0.01 0.01 0.00 0.00 0.00 0.00 0.00 0.02 0.03 0.00 0.05 0.01 0.00 0.00 0.00 0.00 0.00 0.00 0.00 0.00 0.00 0.00 0.00 0.00 0.00 0.00 0.00 0.00
0.00 0.00 0.00 0.00 0.00 0.00 0.00 0.00 0.00 0.00 0.00 0.00 0.00 0.00 0.00 0.00 0.00 0.00 0.00 0.00 0.00 0.00 0.00 0.06 0.02 0.00 0.06 0.00 0.00 0.00 0.00 0.00 0.00 0.00 0.00 0.00 0.00 0.00 0.00 0.00 0.00 0.00 0.00
0.00 0.00 0.00 0.00 0.00 0.00 0.00 0.00 0.00 0.00 0.00 0.00 0.00 0.00 0.00 0.00 0.00 0.01 0.00 0.00 0.00 0.00 0.00 0.04 0.07 0.01 0.05 0.02 0.00 0.00 0.00 0.00 0.00 0.00 0.00 0.00 0.00 0.00 0.00 0.00 0.00 0.00 0.00
0.00 0.00 0.00 0.00 0.00 0.00 0.00 0.01 0.01 0.00 0.00 0.00 0.00 0.00 0.01 0.00 0.00 0.00 0.00 0.00 0.00 0.00 0.00 0.00 0.00 0.02 0.02 0.02 0.00 0.00 0.00 0.00 0.00 0.01 0.00 0.00 0.00 0.00 0.00 0.00 0.00 0.00 0.00
0.00 0.00 0.00 0.00 0.03 0.04 0.01 0.00 0.00 0.00 0.00 0.01 0.00 0.00 0.00 0.00 0.05 0.04 0.01 0.01 0.00 0.00 0.00 0.00 0.00 0.01 0.05 0.04 0.00 0.00 0.00 0.00 0.00 0.00 0.00 0.00 0.00 0.00 0.00 0.00 0.00 0.00 0.00
0.00 0.00 0.00 0.00 0.00 0.00 0.00 0.03 0.00 0.00 0.00 0.00 0.02 0.03 0.01 0.12 0.55 0.49 0.15 0.05 0.00 0.00 0.00 0.00 0.03 0.00 0.00 0.00 0.00 0.00 0.00 0.00 0.00 0.01 0.01 0.01 0.00 0.00 0.00 0.00 0.00 0.00 0.00
0.00 0.00 0.00 0.00 0.02 0.00 0.06 0.22 0.03 0.00 0.08 0.12 0.11 0.11 0.10 0.25 0.58 0.79 0.18 0.05 0.03 0.03 0.02 0.02 0.01 0.00 0.00 0.00 0.01 0.00 0.00 0.00 0.01 0.01 0.01 0.03 0.01 0.00 0.00 0.00 0.00 0.00 0.00
0.00 0.00 0.00 0.00 0.00 0.01 0.03 0.19 0.03 0.06 0.68 1.31 0.14 0.09 0.11 0.11 0.07 0.06 0.02 0.02 0.08 0.17 0.20 0.24 0.25 0.05 0.03 0.00 0.00 0.00 0.00 0.00 0.00 0.00 0.02 0.03 0.02 0.00 0.00 0.00 0.00 0.00 0.00
0.00 0.00 0.00 0.00 0.01 0.05 0.07 0.11 0.08 0.12 0.28 0.31 0.17 0.03 0.00 0.01 0.00 0.00 0.00 0.00 0.00 0.05 0.11 0.11 0.69 0.34 0.15 0.02 0.00 0.00 0.00 0.00 0.00 0.00 0.00 0.05 0.05 0.04 0.02 0.00 0.00 0.00 0.00
0.21 0.13 0.11 0.03 0.11 0.25 0.16 0.12 0.09 0.09 0.10 0.06 0.02 0.00 0.00 0.00 0.00 0.00 0.00 0.00 0.00 0.03 0.09 0.06 0.19 0.31 0.17 0.02 0.00 0.00 0.00 0.00 0.00 0.00 0.01 0.05 0.04 0.04 0.01 0.00 0.00 0.00 0.04
0.89 0.71 0.21 0.15 0.26 0.18 0.25 0.18 0.06 0.04 0.01 0.00 0.00 0.00 0.00 0.00 0.00 0.00 0.00 0.00 0.05 0.55 0.53 0.17 0.08 0.14 0.10 0.07 0.03 0.00 0.00 0.00 0.00 0.00 0.00 0.00 0.00 0.01 0.03 0.03 0.00 0.02 0.07
1.05 0.84 0.05 0.01 0.04 0.05 0.06 0.10 0.12 0.11 0.05 0.04 0.00 0.00 0.00 0.00 0.00 0.00 0.00 0.02 0.05 0.90 0.60 0.26 0.23 0.24 0.06 0.09 0.07 0.03 0.05 0.02 0.00 0.00 0.00 0.00 0.00 0.00 0.01 0.03 0.05 0.02 0.06
0.58 0.15 0.01 0.02 0.05 0.01 0.01 0.06 0.17 0.15 0.09 0.03 0.03 0.02 0.00 0.00 0.00 0.01 0.02 0.06 0.11 0.14 0.29 0.20 0.15 0.13 0.10 0.06 0.03 0.02 0.01 0.06 0.03 0.00 0.00 0.00 0.00 0.00 0.00 0.01 0.06 0.07 0.07
0.06 0.01 0.00 0.00 0.02 0.02 0.01 0.07 0.06 0.18 0.20 0.03 0.01 0.03 0.01 0.00 0.00 0.02 0.09 0.10 0.10 0.14 0.14 0.12 0.10 0.10 0.09 0.06 0.06 0.03 0.04 0.00 0.00 0.00 0.00 0.00 0.00 0.00 0.00 0.04 0.09 0.07 0.06
0.00 0.00 0.00 0.00 0.00 0.01 0.02 0.01 0.00 0.00 0.06 0.03 0.01 0.03 0.00 0.01 0.09 0.17 0.25 0.20 0.18 0.16 0.13 0.07 0.08 0.08 0.02 0.05 0.07 0.05 0.04 0.01 0.00 0.00 0.00 0.00 0.00 0.00 0.00 0.00 0.10 0.03 0.07
0.01 0.00 0.00 0.00 0.00 0.00 0.01 0.00 0.00 0.00 0.00 0.01 0.01 0.02 0.02 0.01 0.13 0.17 0.20 0.22 0.19 0.13 0.12 0.09 0.05 0.03 0.01 0.06 0.09 0.09 0.03 0.02 0.02 0.02 0.03 0.01 0.00 0.00 0.00 0.05 0.06 0.17 0.27
0.00 0.00 0.00 0.00 0.03 0.01 0.00 0.00 0.00 0.00 0.00 0.00 0.00 0.01 0.01 0.03 0.10 0.14 0.10 0.06 0.06 0.04 0.03 0.04 0.03 0.06 0.06 0.08 0.09 0.08 0.06 0.07 0.07 0.06 0.03 0.05 0.03 0.13 0.04 0.10 0.13 0.83 0.96
0.00 0.00 0.00 0.01 0.08 0.00 0.00 0.00 0.00 0.01 0.01 0.01 0.01 0.05 0.06 0.05 0.02 0.01 0.00 0.00 0.00 0.00 0.02 0.06 0.07 0.06 0.08 0.06 0.09 0.12 0.12 0.09 0.12 0.15 0.25 0.19 0.21 0.18 0.21 0.17 0.13 0.40 0.72
0.00 0.00 0.00 0.01 0.03 0.00 0.00 0.00 0.01 0.04 0.03 0.00 0.01 0.02 0.04 0.05 0.01 0.00 0.02 0.01 0.01 0.03 0.02 0.02 0.05 0.08 0.09 0.05 0.05 0.08 0.11 0.06 0.05 0.13 0.18 0.16 0.06 0.01 0.02 0.04 0.10 0.14 0.13
0.00 0.00 0.00 0.03 0.01 0.00 0.00 0.00 0.00 0.01 0.02 0.00 0.00 0.00 0.00 0.01 0.00 0.01 0.03 0.02 0.01 0.05 0.07 0.09 0.16 0.12 0.10 0.12 0.11 0.10 0.06 0.09 0.10 0.09 0.16 0.18 0.15 0.06 0.02 0.01 0.04 0.09 0.12
MSLP
1010.49 1011.39 1011.97 1012.16 1012.48 1012.82 1013.18 1013.47 1013.79 1014.09 1014.43 1014.64 1014.92 1015.16 1015.31 1015.34 1015.43 1015.45 1015.71 1015.89 1016.07 1016.25 1016.42 1016.58 1016.70 1016.72 1016.82 1016.94 1017.13 1017.32 1017.45 1017.49 1017.46 1017.56 1017.65 1017.76 1018.06 1018.28 1018.41 1018.50 1018.45 1018.76 1019.15
1010.25 1011.32 1011.97 1012.28 1012.61 1012.87 1013.26 1013.56 1013.85 1014.14 1014.49 1014.79 1014.93 1015.19 1015.38 1015.43 1015.53 1015.85 1016.05 1016.09 1016.15 1016.40 1016.69 1016.83 1016.88 1016.90 1016.99 1017.10 1017.32 1017.49 1017.62 1017.69 1017.73 1017.80 1017.75 1017.89 1018.24 1018.54 1018.61 1018.51 1018.69 1019.15 1019.43
1010.33 1011.42 1011.92 1012.41 1012.73 1013.01 1013.32 1013.69 1013.95 1014.25 1014.52 1014.81 1014.93 1015.29 1015.40 1015.47 1015.75 1016.10 1016.37 1016.52 1016.59 1016.71 1016.74 1017.01 1017.17 1017.21 1017.26 1017.30 1017.47 1017.64 1017.65 1017.79 1018.01 1018.07 1017.91 1017.89 1018.36 1018.64 1018.87 1019.00 1019.14 1019.38 1019.67
1010.43 1010.95 1011.89 1012.53 1012.84 1013.15 1013.44 1013.79 1014.02 1014.24 1014.61 1014.85 1015.05 1015.36 1015.40 1015.47 1015.68 1016.09 1016.44 1016.66 1016.81 1016.85 1016.95 1017.03 1017.37 1017.45 1017.49 1017.58 1017.67 1017.74 1017.74 1017.97 1018.13 1018.06 1017.93 1017.95 1018.06 1018.77 1019.07 1019.32 1019.49 1019.68 1019.83
1009.75 1010.73 1012.15 1012.55 1012.92 1013.22 1013.53 1013.87 1014.15 1014.30 1014.63 1014.85 1015.08 1015.41 1015.57 1015.55 1015.63 1015.86 1016.22 1016.55 1016.80 1016.90 1017.01 1017.12 1017.32 1017.52 1017.66 1017.74 1017.83 1017.89 1017.82 1017.92 1017.99 1017.93 1018.16 1018.09 1018.24 1018.91 1019.26 1019.43 1019.61 1019.86 1019.92
1009.77 1010.94 1012.12 1012.60 1013.03 1013.38 1013.67 1013.97 1014.25 1014.51 1014.73 1014.91 1015.10 1015.27 1015.49 1015.60 1015.58 1015.77 1016.01 1016.35 1016.59 1016.78 1017.00 1017.13 1017.32 1017.53 1017.71 1017.85 1017.97 1017.99 1017.89 1018.07 1017.92 1017.87 1017.75 1017.89 1018.34 1019.00 1019.31 1019.51 1019.64 1019.95 1020.16
1010.19 1011.15 1012.00 1012.64 1013.10 1013.56 1013.85 1014.01 1014.27 1014.53 1014.77 1015.01 1015.17 1015.31 1015.47 1015.59 1015.64 1015.81 1016.03 1016.25 1016.52 1016.72 1016.91 1017.11 1017.27 1017.51 1017.69 1017.92 1018.06 1018.03 1017.99 1018.11 1017.91 1017.77 1017.73 1018.24 1018.81 1019.09 1019.35 1019.60 1019.86 1020.01 1020.29
1010.02 1011.05 1011.88 1012.61 1013.03 1013.51 1013.74 1013.97 1014.21 1014.47 1014.68 1014.86 1015.16 1015.39 1015.49 1015.67 1015.86 1016.01 1016.13 1016.22 1016.43 1016.63 1016.75 1016.99 1017.20 1017.40 1017.69 1017.92 1018.08 1018.09 1017.92 1018.07 1017.95 1017.86 1017.77 1018.16 1018.70 1018.99 1019.22 1019.62 1019.89 1020.09 1020.31
1009.88 1011.08 1011.95 1012.59 1012.89 1013.14 1013.38 1013.69 1014.16 1014.58 1014.85 1015.01 1015.11 1015.22 1015.43 1015.63 1015.94 1016.08 1016.12 1016.21 1016.41 1016.70 1016.78 1016.93 1017.05 1017.24 1017.51 1017.77 1017.97 1018.09 1017.96 1018.02 1018.21 1017.70 1017.57 1018.25 1018.77 1018.85 1019.24 1019.57 1019.79 1020.05 1020.29
1010.18 1010.83 1011.45 1012.36 1012.91 1013.13 1013.20 1013.57 1014.11 1014.55 1014.83 1015.12 1015.39 1015.37 1015.55 1015.85 1016.01 1016.22 1016.29 1016.40 1016.49 1016.78 1016.93 1016.91 1016.99 1017.24 1017.55 1017.69 1017.84 1018.02 1018.01 1017.98 1017.96 1017.73 1017.77 1018.00 1018.53 1018.73 1019.11 1019.53 1019.81 1020.04 1020.25
1010.09 1010.75 1011.35 1012.03 1012.47 1012.53 1012.91 1013.20 1013.67 1014.30 1014.81 1015.23 1015.39 1015.41 1015.58 1015.43 1015.83 1016.22 1016.29 1016.12 1016.47 1016.67 1016.96 1017.06 1017.08 1017.27 1017.60 1017.79 1017.88 1017.93 1018.05 1017.76 1017.36 1017.51 1017.80 1018.19 1018.55 1018.57 1019.00 1019.37 1019.67 1019.92 1020.22
1009.85 1010.52 1010.96 1011.33 1011.93 1012.31 1012.24 1013.13 1013.36 1013.57 1014.25 1014.89 1014.92 1015.75 1015.59 1016.46 1016.44 1017.09 1017.02 1016.33 1016.37 1016.55 1016.84 1017.15 1017.21 1017.23 1017.33 1017.42 1017.81 1017.90 1017.81 1017.48 1017.18 1017.17 1017.45 1018.04 1018.40 1018.44 1018.76 1019.16 1019.51 1019.75 1020.04
1009.37 1010.13 1010.73 1011.03 1011.43 1011.72 1012.77 1013.40 1013.62 1013.23 1013.95 1014.63 1014.65 1015.59 1015.93 1016.45 1016.57 1017.64 1017.63 1016.41 1016.44 1016.76 1016.81 1017.20 1017.20 1016.96 1016.99 1017.05 1017.13 1017.56 1017.39 1016.89 1016.66 1017.13 1017.26 1017.74 1017.96 1018.34 1018.52 1019.01 1019.34 1019.60 1019.85
1009.66 1010.53 1010.89 1011.25 1011.53 1011.75 1013.17 1013.68 1012.53 1013.27 1014.24 1015.31 1015.01 1015.13 1015.96 1016.30 1016.50 1016.71 1016.24 1016.01 1016.63 1016.79 1017.09 1017.48 1017.33 1017.12 1017.03 1016.47 1016.78 1016.93 1016.83 1016.43 1016.38 1016.75 1017.09 1017.39 1017.61 1017.91 1018.16 1018.55 1019.03 1019.41 1019.68
1009.86 1010.37 1010.87 1011.32 1011.61 1011.75 1012.07 1012.74 1013.18 1013.53 1014.85 1015.47 1015.15 1014.74 1015.24 1015.45 1015.57 1015.69 1015.89 1015.97 1016.22 1016.80 1017.18 1017.49 1017.15 1017.11 1017.47 1016.69 1016.37 1016.48 1016.39 1016.19 1016.13 1016.41 1016.64 1017.20 1017.65 1017.81 1018.02 1018.14 1018.67 1019.07 1019.37
1013.87 1013.76 1012.67 1011.73 1011.63 1012.21 1012.42 1012.57 1013.64 1014.02 1014.51 1014.89 1014.81 1015.25 1014.93 1014.82 1014.97 1015.39 1015.65 1016.19 1016.11 1017.02 1017.66 1017.50 1017.47 1017.67 1017.43 1016.10 1016.15 1016.06 1016.11 1015.95 1015.85 1016.05 1016.49 1017.17 1017.38 1017.41 1017.59 1017.92 1018.16 1018.47 1018.81
1010.81 1013.13 1012.89 1012.76 1012.20 1012.68 1012.86 1013.05 1012.92 1013.58 1014.11 1014.43 1014.73 1014.76 1014.80 1015.08 1015.25 1015.14 1015.47 1015.39 1016.03 1016.47 1016.89 1017.26 1017.03 1016.63 1016.46 1015.79 1015.78 1015.65 1015.47 1015.50 1015.71 1015.81 1016.11 1016.61 1016.90 1017.05 1017.14 1017.60 1017.73 1017.91 1018.32
1012.16 1012.93 1012.17 1012.03 1012.52 1013.25 1013.09 1013.01 1012.85 1013.14 1013.60 1014.00 1014.01 1014.56 1014.55 1014.73 1014.97 1015.12 1015.37 1015.27 1015.72 1015.99 1017.03 1017.65 1016.83 1016.09 1016.09 1015.95 1015.89 1015.71 1015.76 1015.67 1015.41 1015.65 1015.91 1015.99 1016.33 1016.41 1016.81 1016.99 1017.20 1017.57 1017.94
1013.20 1012.71 1012.76 1012.31 1012.93 1013.63 1013.39 1013.25 1013.07 1013.43 1013.53 1013.88 1014.37 1014.70 1014.93 1014.80 1014.87 1015.27 1015.08 1014.92 1014.84 1015.33 1016.53 1017.01 1016.06 1015.98 1015.90 1015.70 1015.50 1015.43 1015.45 1015.49 1015.49 1015.31 1015.45 1015.60 1015.79 1016.03 1016.25 1016.55 1016.99 1017.69 1017.91
1014.07 1013.04 1013.26 1012.69 1013.41 1013.88 1013.76 1013.67 1013.70 1013.96 1014.09 1014.03 1014.29 1014.41 1014.74 1014.72 1014.78 1014.93 1014.99 1014.84 1014.82 1015.16 1015.24 1015.42 1015.46 1015.50 1015.42 1015.17 1015.22 1015.04 1015.22 1015.21 1015.09 1015.25 1015.23 1015.16 1015.34 1015.39 1015.53 1016.02 1016.87 1017.05 1017.25
1012.87 1012.44 1012.62 1012.91 1013.66 1013.55 1013.39 1013.44 1014.25 1014.49 1014.44 1014.48 1014.28 1014.39 1014.44 1014.55 1014.58 1014.74 1014.44 1014.79 1014.91 1015.17 1015.21 1015.24 1015.17 1015.20 1015.21 1015.13 1015.39 1015.27 1014.99 1014.79 1014.64 1014.61 1014.70 1014.80 1014.71 1014.77 1015.13 1015.36 1016.07 1016.20 1016.21
1011.88 1011.63 1012.35 1013.14 1013.40 1012.88 1012.79 1012.83 1013.33 1014.10 1014.34 1014.32 1014.38 1014.33 1014.33 1014.31 1014.35 1014.29 1014.41 1014.48 1014.71 1014.82 1014.83 1014.71 1014.79 1014.94 1015.00 1014.98 1015.26 1015.29 1015.09 1014.37 1014.06 1014.17 1014.38 1014.70 1014.70 1014.46 1014.45 1015.00 1015.77 1015.95 1016.50
1011.15 1011.26 1011.95 1012.53 1012.69 1012.40 1012.56 1012.91 1013.51 1013.56 1014.27 1014.62 1014.54 1014.40 1014.25 1014.25 1014.31 1014.40 1014.08 1014.31 1014.61 1014.68 1014.50 1014.43 1014.55 1014.85 1014.99 1014.89 1014.96 1015.28 1015.12 1014.69 1014.40 1014.09 1014.29 1014.78 1014.65 1014.85 1014.55 1015.06 1015.37 1015.67 1016.08
1010.61 1011.12 1011.63 1012.15 1012.53 1012.29 1012.35 1012.59 1012.77 1013.22 1013.62 1014.22 1014.48 1014.30 1014.20 1013.88 1013.89 1013.94 1014.03 1014.23 1014.43 1014.50 1014.54 1014.66 1014.64 1014.67 1014.79 1014.76 1014.80 1014.83 1014.85 1014.99 1015.03 1014.82 1014.22 1015.07 1015.17 1015.35 1015.31 1015.53 1015.47 1016.01 1016.85
1010.21 1010.84 1011.28 1011.81 1012.16 1012.15 1012.16 1012.01 1012.56 1013.04 1013.53 1013.92 1014.20 1014.33 1014.27 1014.21 1014.07 1014.31 1014.51 1014.51 1014.58 1014.65 1014.61 1014.59 1014.49 1014.58 1014.65 1014.73 1014.71 1014.77 1014.79 1014.86 1014.97 1015.32 1015.13 1015.81 1016.40 1016.80 1016.76 1016.49 1016.63 1016.71 1017.47
1009.80 1010.46 1011.08 1011.56 1011.91 1012.22 1012.17 1012.36 1012.77 1013.03 1013.21 1013.96 1014.43 1014.36 1014.04 1014.26 1014.40 1014.40 1014.63 1014.64 1014.50 1014.62 1014.59 1014.60 1014.57 1014.57 1014.59 1014.62 1014.61 1014.63 1014.77 1014.77 1014.83 1015.00 1015.42 1016.25 1016.82 1017.63 1017.73 1017.72 1017.71 1017.67 1017.72
Thickness
5800 5794 5788 5787 5785 5782 5779 5776 5773 5770 5767 5766 5763 5762 5761 5761 5761 5758 5756 5756 5757 5758 5757 5755 5755 5757 5756 5756 5755 5754 5754 5754 5755 5755 5755 5755 5753 5751 5750 5749 5750 5748 5745
5805 5794 5790 5787 5784 5782 5778 5776 5773 5770 5767 5765 5764 5762 5761 5760 5759 5755 5753 5755 5756 5756 5755 5754 5755 5756 5756 5756 5755 5754 5754 5755 5755 5755 5756 5755 5753 5751 5751 5751 5751 5747 5745
5804 5795 5791 5786 5783 5781 5778 5775 5772 5769 5767 5765 5766 5763 5762 5761 5758 5758 5755 5756 5757 5755 5755 5754 5754 5755 5755 5756 5755 5756 5756 5756 5754 5754 5757 5757 5754 5752 5751 5751 5750 5748 5745
5804 5800 5791 5786 5783 5780 5777 5775 5772 5770 5767 5764 5765 5763 5763 5762 5760 5757 5757 5759 5757 5757 5757 5756 5754 5754 5755 5755 5755 5756 5757 5756 5756 5757 5758 5758 5757 5753 5751 5750 5750 5748 5746
5812 5803 5790 5787 5782 5779 5777 5774 5771 5769 5766 5764 5764 5763 5762 5763 5763 5760 5758 5757 5757 5757 5757 5757 5756 5755 5754 5755 5756 5756 5758 5759 5759 5760 5759 5760 5758 5754 5752 5751 5750 5748 5747
5814 5801 5791 5786 5781 5778 5775 5772 5769 5767 5765 5764 5763 5764 5763 5763 5763 5763 5761 5758 5758 5757 5757 5758 5757 5757 5756 5756 5756 5757 5759 5759 5761 5763 5764 5764 5760 5755 5753 5752 5751 5748 5747
5810 5800 5792 5786 5781 5776 5773 5771 5769 5767 5766 5764 5763 5762 5763 5764 5764 5763 5761 5759 5758 5756 5757 5757 5758 5757 5758 5757 5757 5758 5760 5760 5763 5764 5765 5762 5759 5756 5755 5753 5751 5750 5748
5814 5802 5794 5787 5781 5776 5774 5772 5770 5767 5766 5765 5763 5761 5762 5762 5761 5761 5761 5761 5760 5758 5760 5759 5758 5758 5758 5758 5758 5758 5761 5761 5763 5766 5766 5764 5761 5759 5757 5754 5752 5750 5749
5815 5803 5793 5787 5783 5780 5777 5774 5770 5766 5764 5763 5764 5764 5762 5760 5759 5758 5760 5761 5760 5759 5760 5760 5760 5760 5759 5759 5759 5759 5761 5762 5761 5767 5769 5765 5762 5761 5758 5756 5755 5752 5750
5816 5807 5798 5789 5782 5779 5778 5774 5768 5764 5763 5760 5759 5760 5757 5754 5755 5754 5755 5755 5756 5756 5757 5759 5759 5758 5758 5759 5760 5759 5761 5762 5763 5767 5767 5767 5764 5763 5760 5757 5755 5754 5752
5813 5806 5799 5791 5785 5783 5778 5777 5771 5764 5759 5755 5755 5756 5756 5762 5756 5752 5753 5756 5754 5756 5755 5756 5759 5758 5756 5756 5757 5759 5759 5763 5768 5768 5766 5765 5763 5763 5760 5758 5756 5754 5752
5811 5806 5804 5798 5789 5783 5782 5773 5771 5770 5763 5756 5756 5745 5754 5750 5752 5746 5743 5756 5756 5757 5756 5753 5753 5754 5757 5758 5755 5756 5760 5764 5767 5770 5768 5765 5763 5763 5762 5759 5756 5754 5752
5815 5808 5802 5799 5790 5786 5773 5767 5763 5769 5764 5758 5757 5745 5746 5750 5744 5727 5737 5755 5755 5754 5755 5751 5753 5758 5757 5758 5760 5757 5761 5768 5770 5768 5768 5766 5765 5763 5762 5758 5756 5754 5752
5809 5799 5798 5792 5787 5783 5767 5759 5770 5768 5761 5754 5758 5749 5744 5746 5743 5742 5748 5754 5749 5752 5751 5749 5754 5756 5758 5762 5762 5761 5763 5768 5771 5770 5768 5767 5767 5765 5763 5760 5756 5753 5751
5804 5797 5792 5787 5781 5780 5778 5771 5766 5764 5749 5745 5748 5752 5751 5755 5759 5755 5752 5751 5753 5751 5748 5746 5755 5754 5751 5758 5764 5765 5767 5769 5770 5770 5769 5766 5763 5762 5762 5761 5757 5753 5750
5748 5751 5764 5778 5779 5769 5771 5773 5758 5753 5748 5746 5747 5742 5752 5762 5763 5757 5752 5749 5754 5743 5741 5744 5746 5746 5750 5758 5765 5767 5767 5769 5770 5770 5769 5763 5762 5762 5762 5759 5758 5756 5753
5755 5750 5759 5764 5771 5766 5761 5764 5765 5757 5751 5747 5749 5748 5751 5754 5753 5755 5754 5760 5751 5750 5747 5745 5747 5752 5755 5764 5767 5767 5769 5770 5768 5768 5768 5764 5762 5762 5762 5758 5758 5757 5753
5787 5781 5775 5772 5769 5759 5759 5761 5761 5761 5757 5754 5756 5752 5754 5757 5755 5756 5757 5758 5750 5754 5744 5740 5749 5756 5759 5761 5762 5765 5765 5766 5768 5766 5764 5764 5763 5762 5760 5759 5757 5754 5751
5775 5780 5767 5770 5766 5755 5755 5754 5757 5757 5756 5752 5750 5750 5749 5753 5753 5751 5754 5758 5761 5756 5744 5745 5754 5756 5757 5760 5763 5764 5764 5765 5765 5764 5764 5763 5763 5762 5760 5758 5753 5744 5743
5758 5776 5765 5777 5763 5754 5751 5750 5751 5749 5749 5749 5750 5750 5749 5751 5752 5749 5751 5754 5755 5755 5756 5756 5757 5759 5760 5763 5763 5763 5763 5764 5765 5763 5763 5762 5761 5761 5760 5755 5749 5742 5744
5778 5784 5782 5775 5760 5757 5752 5751 5742 5738 5741 5742 5747 5747 5749 5750 5751 5751 5753 5752 5752 5753 5754 5755 5757 5757 5759 5762 5757 5757 5761 5764 5765 5765 5763 5762 5762 5761 5758 5757 5750 5750 5751
5794 5794 5780 5768 5761 5763 5763 5760 5752 5744 5744 5743 5743 5745 5747 5749 5750 5753 5754 5755 5754 5755 5756 5758 5759 5757 5758 5760 5751 5751 5744 5757 5764 5765 5762 5758 5759 5761 5759 5755 5753 5751 5748
5799 5796 5783 5772 5767 5771 5767 5760 5752 5754 5745 5741 5742 5744 5746 5747 5749 5750 5753 5754 5754 5755 5756 5758 5759 5756 5750 5756 5756 5747 5740 5741 5751 5760 5758 5754 5756 5753 5758 5757 5753 5751 5745
5803 5795 5785 5777 5770 5771 5768 5761 5758 5752 5747 5742 5741 5744 5746 5750 5750 5751 5751 5751 5753 5754 5754 5754 5756 5755 5753 5749 5753 5753 5752 5748 5739 5739 5735 5743 5747 5746 5747 5741 5748 5744 5732
5806 5795 5786 5779 5772 5772 5771 5770 5761 5753 5749 5747 5744 5741 5743 5746 5744 5745 5746 5747 5749 5750 5752 5753 5755 5755 5753 5750 5749 5748 5747 5746 5745 5736 5735 5733 5732 5731 5733 5736 5735 5735 5725
5809 5798 5788 5779 5774 5770 5769 5767 5760 5754 5752 5743 5738 5737 5741 5741 5740 5743 5743 5745 5748 5749 5750 5751 5752 5752 5751 5750 5749 5748 5744 5741 5739 5738 5732 5725 5722 5718 5721 5721 5722 5721 5721